| time (UTC) | temp F | wind direction | speed knots | gust knots | rain 1hr in | rain 24hr in | rain mn in | humidity % | barometer mb |
| 20260508194835 | 58 | 192 | 5.2 | 11.3 | 0.00 | 0.00 | 0.00 | 75 | 1007.1 |
| 20260508194323 | 58 | 192 | 5.2 | 13.0 | 0.00 | 0.00 | 0.00 | 74 | 1007.1 |
| 20260508193853 | 59 | 185 | 8.7 | 13.0 | 0.00 | 0.00 | 0.00 | 73 | 1007.1 |
| 20260508193321 | 59 | 193 | 5.2 | 11.3 | 0.00 | 0.00 | 0.00 | 73 | 1007.1 |
| 20260508192817 | 59 | 197 | 5.2 | 10.4 | 0.00 | 0.00 | 0.00 | 73 | 1007.1 |
| 20260508192339 | 59 | 192 | 7.0 | 10.4 | 0.00 | 0.00 | 0.00 | 73 | 1007.1 |
| 20260508191828 | 59 | 178 | 6.1 | 13.0 | 0.00 | 0.00 | 0.00 | 71 | 1007.3 |
| 20260508191320 | 60 | 189 | 7.0 | 13.0 | 0.00 | 0.00 | 0.00 | 69 | 1007.3 |
| 20260508190829 | 60 | 173 | 6.1 | 13.0 | 0.00 | 0.00 | 0.00 | 65 | 1007.3 |
| 20260508190313 | 61 | 190 | 7.0 | 11.3 | 0.00 | 0.00 | 0.00 | 62 | 1007.4 |
| 20260508185831 | 61 | 213 | 6.1 | 10.4 | 0.00 | 0.00 | 0.00 | 61 | 1007.4 |
| 20260508185317 | 61 | 202 | 6.1 | 10.4 | 0.00 | 0.00 | 0.00 | 64 | 1007.4 |
| 20260508184827 | 61 | 165 | 5.2 | 10.4 | 0.00 | 0.00 | 0.00 | 61 | 1007.5 |
| 20260508184315 | 61 | 196 | 7.0 | 10.4 | 0.00 | 0.00 | 0.00 | 58 | 1007.5 |
| 20260508183836 | 61 | 149 | 6.1 | 10.4 | 0.00 | 0.00 | 0.00 | 58 | 1007.5 |
| 20260508183341 | 60 | 194 | 5.2 | 15.6 | 0.00 | 0.00 | 0.00 | 57 | 1007.7 |
| 20260508182828 | 60 | 203 | 7.0 | 9.6 | 0.00 | 0.00 | 0.00 | 62 | 1007.7 |
| 20260508182321 | 60 | 217 | 3.5 | 8.7 | 0.00 | 0.00 | 0.00 | 63 | 1007.7 |
| 20260508181827 | 60 | 163 | 4.3 | 8.7 | 0.00 | 0.00 | 0.00 | 64 | 1007.8 |
| 20260508181316 | 59 | 221 | 5.2 | 8.7 | 0.00 | 0.00 | 0.00 | 64 | 1007.8 |
| 20260508180822 | 59 | 216 | 3.5 | 9.6 | 0.00 | 0.00 | 0.00 | 67 | 1007.8 |
| 20260508180341 | 59 | 191 | 4.3 | 9.6 | 0.00 | 0.00 | 0.00 | 66 | 1007.8 |
| 20260508175833 | 59 | 192 | 3.5 | 8.7 | 0.00 | 0.00 | 0.00 | 65 | 1007.8 |
| 20260508175344 | 59 | 176 | 3.5 | 8.7 | 0.00 | 0.00 | 0.00 | 64 | 1007.8 |
| 20260508174814 | 59 | 223 | 4.3 | 10.4 | 0.00 | 0.00 | 0.00 | 66 | 1008.4 |
| 20260508174324 | 59 | 193 | 7.0 | 11.3 | 0.00 | 0.00 | 0.00 | 63 | 1008.4 |
| 20260508173818 | 59 | 163 | 4.3 | 13.0 | 0.00 | 0.00 | 0.00 | 64 | 1008.4 |
| 20260508173330 | 59 | 206 | 7.0 | 13.0 | 0.00 | 0.00 | 0.00 | 66 | 1008.3 |
| 20260508172819 | 59 | 175 | 3.5 | 6.1 | 0.00 | 0.00 | 0.00 | 66 | 1008.3 |
| 20260508172327 | 59 | 174 | 0.9 | 7.8 | 0.00 | 0.00 | 0.00 | 65 | 1008.3 |
| 20260508171819 | 59 | 197 | 1.7 | 7.8 | 0.00 | 0.00 | 0.00 | 64 | 1008.5 |
| 20260508171323 | 59 | 193 | 0.9 | 8.7 | 0.00 | 0.00 | 0.00 | 65 | 1008.5 |
| 20260508170848 | 59 | 196 | 5.2 | 7.8 | 0.00 | 0.00 | 0.00 | 65 | 1008.5 |
| 20260508170332 | 59 | 223 | 0.9 | 7.8 | 0.00 | 0.00 | 0.00 | 65 | 1008.6 |
| 20260508165842 | 60 | 205 | 4.3 | 7.8 | 0.00 | 0.00 | 0.00 | 66 | 1008.6 |
| 20260508165400 | 60 | 249 | 1.7 | 7.0 | 0.00 | 0.00 | 0.00 | 67 | 1008.6 |
| 20260508164826 | 59 | 225 | 4.3 | 7.0 | 0.00 | 0.00 | 0.00 | 68 | 1008.9 |
| 20260508164333 | 59 | 219 | 3.5 | 7.8 | 0.00 | 0.00 | 0.00 | 69 | 1008.9 |
| 20260508163816 | 58 | 230 | 0.9 | 9.6 | 0.00 | 0.00 | 0.00 | 69 | 1008.9 |
| 20260508163330 | 58 | 167 | 2.6 | 7.8 | 0.00 | 0.00 | 0.00 | 69 | 1009.3 |
| 20260508162816 | 58 | 222 | 0.0 | 8.7 | 0.00 | 0.00 | 0.00 | 70 | 1009.3 |
| 20260508162321 | 58 | 257 | 3.5 | 8.7 | 0.00 | 0.00 | 0.00 | 71 | 1009.3 |
| 20260508161837 | 57 | 204 | 4.3 | 8.7 | 0.00 | 0.00 | 0.00 | 71 | 1009.3 |
| 20260508161322 | 57 | 231 | 6.1 | 8.7 | 0.00 | 0.00 | 0.00 | 71 | 1009.3 |
| 20260508160832 | 56 | 219 | 1.7 | 7.0 | 0.00 | 0.00 | 0.00 | 72 | 1009.3 |
| 20260508160316 | 56 | 225 | 1.7 | 9.6 | 0.00 | 0.00 | 0.00 | 72 | 1009.5 |
| 20260508155826 | 56 | 212 | 5.2 | 9.6 | 0.00 | 0.00 | 0.00 | 73 | 1009.5 |
| 20260508155316 | 56 | 216 | 6.1 | 9.6 | 0.00 | 0.00 | 0.00 | 73 | 1009.5 |
| 20260508154825 | 56 | 218 | 2.6 | 6.1 | 0.00 | 0.00 | 0.00 | 72 | 1009.5 |
| 20260508154310 | 56 | 221 | 2.6 | 8.7 | 0.00 | 0.00 | 0.00 | 73 | 1009.5 |
| 20260508153823 | 56 | 259 | 6.1 | 9.6 | 0.00 | 0.00 | 0.00 | 72 | 1009.5 |
| 20260508153315 | 56 | 217 | 2.6 | 7.8 | 0.00 | 0.00 | 0.00 | 73 | 1009.4 |
| 20260508152823 | 56 | 217 | 4.3 | 7.8 | 0.00 | 0.00 | 0.00 | 73 | 1009.4 |
| 20260508152341 | 55 | 189 | 1.7 | 7.8 | 0.00 | 0.00 | 0.00 | 73 | 1009.4 |
| 20260508151830 | 55 | 190 | 2.6 | 7.8 | 0.00 | 0.00 | 0.00 | 74 | 1009.4 |
| 20260508151323 | 56 | 198 | 2.6 | 7.8 | 0.00 | 0.00 | 0.00 | 74 | 1009.4 |
| 20260508150832 | 55 | 227 | 5.2 | 7.8 | 0.00 | 0.00 | 0.00 | 73 | 1009.4 |
| 20260508150349 | 55 | 221 | 3.5 | 7.0 | 0.00 | 0.00 | 0.00 | 74 | 1009.5 |
| 20260508145817 | 54 | 225 | 0.0 | 5.2 | 0.00 | 0.00 | 0.00 | 73 | 1009.5 |
| 20260508145330 | 54 | 242 | 1.7 | 5.2 | 0.00 | 0.00 | 0.00 | 74 | 1009.5 |
| 20260508144819 | 54 | 247 | 0.0 | 4.3 | 0.00 | 0.00 | 0.00 | 74 | 1009.6 |
| 20260508144326 | 54 | 247 | 0.9 | 6.1 | 0.00 | 0.00 | 0.00 | 74 | 1009.6 |
| 20260508143816 | 54 | 247 | 2.6 | 8.7 | 0.00 | 0.00 | 0.00 | 73 | 1009.6 |
| 20260508143328 | 54 | 247 | 5.2 | 8.7 | 0.00 | 0.00 | 0.00 | 73 | 1009.4 |
| 20260508142848 | 54 | 244 | 0.0 | 0.0 | 0.00 | 0.00 | 0.00 | 75 | 1009.4 |
| 20260508142331 | 54 | 244 | 0.0 | 0.0 | 0.00 | 0.00 | 0.00 | 75 | 1009.4 |
| 20260508141826 | 54 | 244 | 0.0 | 0.0 | 0.00 | 0.00 | 0.00 | 75 | 1009.5 |
| 20260508141333 | 54 | 244 | 0.0 | 1.7 | 0.00 | 0.00 | 0.00 | 76 | 1009.5 |
| 20260508140821 | 53 | 244 | 0.0 | 3.5 | 0.00 | 0.00 | 0.00 | 76 | 1009.5 |
| 20260508140332 | 53 | 244 | 0.0 | 6.1 | 0.00 | 0.00 | 0.00 | 75 | 1009.4 |
| 20260508135822 | 53 | 244 | 0.9 | 6.1 | 0.00 | 0.00 | 0.00 | 75 | 1009.4 |
| 20260508135331 | 53 | 252 | 0.9 | 6.1 | 0.00 | 0.00 | 0.00 | 75 | 1009.4 |
| 20260508134814 | 53 | 252 | 0.0 | 3.5 | 0.00 | 0.00 | 0.00 | 76 | 1009.6 |
| 20260508134319 | 53 | 252 | 0.0 | 7.0 | 0.00 | 0.00 | 0.00 | 75 | 1009.6 |
| 20260508133900 | 53 | 252 | 2.6 | 7.0 | 0.00 | 0.00 | 0.00 | 75 | 1009.6 |
| 20260508133332 | 53 | 251 | 0.9 | 8.7 | 0.00 | 0.00 | 0.00 | 75 | 1009.6 |
| 20260508132817 | 53 | 251 | 3.5 | 8.7 | 0.00 | 0.00 | 0.00 | 75 | 1009.6 |
| 20260508132325 | 53 | 254 | 2.6 | 8.7 | 0.00 | 0.00 | 0.00 | 76 | 1009.6 |
| 20260508131830 | 53 | 252 | 2.6 | 8.7 | 0.00 | 0.00 | 0.00 | 77 | 1009.6 |
| 20260508131319 | 52 | 224 | 5.2 | 10.4 | 0.00 | 0.00 | 0.00 | 76 | 1009.6 |
| 20260508130824 | 52 | 238 | 3.5 | 7.0 | 0.00 | 0.00 | 0.00 | 77 | 1009.6 |
| 20260508130316 | 52 | 238 | 1.7 | 8.7 | 0.00 | 0.00 | 0.00 | 78 | 1009.7 |
| 20260508125824 | 51 | 255 | 2.6 | 8.7 | 0.00 | 0.00 | 0.00 | 78 | 1009.7 |
| 20260508125357 | 51 | 248 | 6.1 | 9.6 | 0.00 | 0.00 | 0.00 | 78 | 1009.7 |
| 20260508124831 | 51 | 247 | 7.8 | 10.4 | 0.00 | 0.00 | 0.00 | 78 | 1009.8 |
| 20260508124344 | 51 | 271 | 7.0 | 10.4 | 0.00 | 0.00 | 0.00 | 78 | 1009.8 |
| 20260508123848 | 51 | 250 | 5.2 | 9.6 | 0.00 | 0.00 | 0.00 | 79 | 1009.8 |
| 20260508123342 | 50 | 227 | 4.3 | 9.6 | 0.00 | 0.00 | 0.00 | 80 | 1009.8 |
| 20260508122829 | 50 | 259 | 3.5 | 11.3 | 0.00 | 0.00 | 0.00 | 80 | 1009.8 |
| 20260508122334 | 50 | 227 | 7.0 | 11.3 | 0.00 | 0.00 | 0.00 | 80 | 1009.8 |
| 20260508121822 | 49 | 238 | 6.1 | 10.4 | 0.00 | 0.00 | 0.00 | 80 | 1009.7 |
| 20260508121313 | 49 | 244 | 5.2 | 10.4 | 0.00 | 0.00 | 0.00 | 80 | 1009.7 |
| 20260508120825 | 49 | 244 | 5.2 | 10.4 | 0.00 | 0.00 | 0.00 | 81 | 1009.7 |
| 20260508120318 | 49 | 242 | 1.7 | 9.6 | 0.00 | 0.00 | 0.00 | 81 | 1009.5 |
| 20260508115825 | 48 | 257 | 6.1 | 9.6 | 0.00 | 0.00 | 0.00 | 81 | 1009.5 |
| 20260508115342 | 48 | 256 | 5.2 | 8.7 | 0.00 | 0.00 | 0.00 | 82 | 1009.5 |
| 20260508114831 | 48 | 222 | 0.9 | 7.0 | 0.00 | 0.00 | 0.00 | 82 | 1009.1 |
| 20260508114342 | 48 | 236 | 1.7 | 7.0 | 0.00 | 0.00 | 0.00 | 83 | 1009.1 |
| 20260508113829 | 47 | 222 | 0.0 | 3.5 | 0.00 | 0.00 | 0.00 | 83 | 1009.1 |
| 20260508113322 | 47 | 205 | 0.0 | 0.0 | 0.00 | 0.00 | 0.00 | 83 | 1009.1 |
| 20260508112832 | 47 | 205 | 0.0 | 0.9 | 0.00 | 0.00 | 0.00 | 83 | 1009.1 |
| 20260508112322 | 47 | 205 | 0.0 | 0.9 | 0.00 | 0.00 | 0.00 | 83 | 1009.1 |
| 20260508111847 | 46 | 205 | 0.0 | 0.0 | 0.00 | 0.00 | 0.00 | 83 | 1008.9 |
| 20260508111321 | 46 | 205 | 0.0 | 0.0 | 0.00 | 0.00 | 0.00 | 83 | 1008.9 |
| 20260508110829 | 46 | 205 | 0.0 | 0.0 | 0.00 | 0.00 | 0.00 | 83 | 1008.9 |
| 20260508110325 | 46 | 205 | 0.0 | 0.0 | 0.00 | 0.00 | 0.00 | 83 | 1008.9 |
| 20260508105818 | 46 | 205 | 0.0 | 0.0 | 0.00 | 0.00 | 0.00 | 83 | 1008.9 |
| 20260508105328 | 46 | 205 | 0.0 | 0.0 | 0.00 | 0.00 | 0.00 | 83 | 1008.9 |
| 20260508104821 | 46 | 205 | 0.0 | 0.0 | 0.00 | 0.00 | 0.00 | 83 | 1008.7 |
| 20260508104337 | 46 | 205 | 0.0 | 0.0 | 0.00 | 0.00 | 0.00 | 83 | 1008.7 |
| 20260508103824 | 46 | 205 | 0.0 | 0.0 | 0.00 | 0.00 | 0.00 | 82 | 1008.7 |
| 20260508103333 | 46 | 205 | 0.0 | 0.0 | 0.00 | 0.00 | 0.00 | 82 | 1008.7 |
| 20260508102827 | 46 | 205 | 0.0 | 0.0 | 0.00 | 0.00 | 0.00 | 82 | 1008.7 |
| 20260508102322 | 46 | 205 | 0.0 | 0.0 | 0.00 | 0.00 | 0.00 | 82 | 1008.7 |
| 20260508101812 | 46 | 205 | 0.0 | 0.0 | 0.00 | 0.00 | 0.00 | 82 | 1008.7 |
| 20260508101345 | 46 | 205 | 0.0 | 0.0 | 0.00 | 0.00 | 0.00 | 83 | 1008.7 |
| 20260508100845 | 46 | 205 | 0.0 | 0.0 | 0.00 | 0.00 | 0.00 | 83 | 1008.7 |
| 20260508100331 | 46 | 205 | 0.0 | 0.0 | 0.00 | 0.00 | 0.00 | 83 | 1008.7 |
| 20260508095816 | 46 | 205 | 0.0 | 0.0 | 0.00 | 0.00 | 0.00 | 83 | 1008.7 |
| 20260508095327 | 46 | 205 | 0.0 | 0.0 | 0.00 | 0.00 | 0.00 | 83 | 1008.7 |
| 20260508094820 | 46 | 205 | 0.0 | 0.0 | 0.00 | 0.00 | 0.00 | 83 | 1008.8 |
| 20260508094326 | 46 | 205 | 0.0 | 0.0 | 0.00 | 0.00 | 0.00 | 83 | 1008.8 |
| 20260508093821 | 46 | 205 | 0.0 | 0.0 | 0.00 | 0.00 | 0.00 | 82 | 1008.8 |
| 20260508093329 | 46 | 205 | 0.0 | 0.0 | 0.00 | 0.00 | 0.00 | 82 | 1008.7 |
| 20260508092853 | 46 | 205 | 0.0 | 0.0 | 0.00 | 0.00 | 0.00 | 82 | 1008.7 |
| 20260508092340 | 46 | 205 | 0.0 | 0.0 | 0.00 | 0.00 | 0.00 | 82 | 1008.7 |
| 20260508091832 | 46 | 205 | 0.0 | 0.0 | 0.00 | 0.00 | 0.00 | 82 | 1008.8 |
| 20260508091321 | 46 | 205 | 0.0 | 1.7 | 0.00 | 0.00 | 0.00 | 82 | 1008.8 |
| 20260508090823 | 46 | 205 | 0.0 | 1.7 | 0.00 | 0.00 | 0.00 | 82 | 1008.8 |
| 20260508090333 | 46 | 205 | 0.0 | 3.5 | 0.00 | 0.00 | 0.00 | 82 | 1008.8 |
| 20260508085825 | 46 | 205 | 0.0 | 4.3 | 0.00 | 0.00 | 0.00 | 82 | 1008.8 |
| 20260508085316 | 46 | 205 | 0.9 | 4.3 | 0.00 | 0.00 | 0.00 | 82 | 1008.8 |
| 20260508084823 | 46 | 205 | 0.0 | 3.5 | 0.00 | 0.00 | 0.00 | 82 | 1008.8 |
| 20260508084330 | 47 | 205 | 0.0 | 3.5 | 0.00 | 0.00 | 0.00 | 82 | 1008.8 |
| 20260508083821 | 47 | 205 | 0.9 | 4.3 | 0.00 | 0.00 | 0.00 | 82 | 1008.8 |
| 20260508083342 | 47 | 205 | 0.9 | 4.3 | 0.00 | 0.00 | 0.00 | 82 | 1008.9 |
| 20260508082831 | 47 | 206 | 0.0 | 1.7 | 0.00 | 0.00 | 0.00 | 82 | 1008.9 |
| 20260508082324 | 47 | 206 | 0.0 | 0.0 | 0.00 | 0.00 | 0.00 | 82 | 1008.9 |
| 20260508081832 | 47 | 206 | 0.0 | 0.0 | 0.00 | 0.00 | 0.00 | 82 | 1009.0 |
| 20260508081320 | 47 | 206 | 0.0 | 0.0 | 0.00 | 0.00 | 0.00 | 82 | 1009.0 |
| 20260508080826 | 47 | 206 | 0.0 | 0.0 | 0.00 | 0.00 | 0.00 | 82 | 1009.0 |
| 20260508080317 | 47 | 191 | 0.0 | 0.0 | 0.00 | 0.00 | 0.00 | 82 | 1009.1 |
| 20260508075829 | 47 | 191 | 0.0 | 0.0 | 0.00 | 0.00 | 0.00 | 82 | 1009.1 |
| 20260508075318 | 47 | 191 | 0.0 | 0.0 | 0.00 | 0.00 | 0.00 | 82 | 1009.1 |
| 20260508074810 | 47 | 191 | 0.0 | 0.0 | 0.00 | 0.00 | 0.00 | 82 | 1009.1 |
| 20260508074323 | 47 | 191 | 0.0 | 0.0 | 0.00 | 0.00 | 0.00 | 82 | 1009.1 |
| 20260508073816 | 47 | 191 | 0.0 | 0.0 | 0.00 | 0.00 | 0.00 | 82 | 1009.1 |
| 20260508073330 | 46 | 191 | 0.0 | 0.0 | 0.00 | 0.00 | 0.00 | 82 | 1009.1 |
| 20260508072822 | 46 | 191 | 0.0 | 0.0 | 0.00 | 0.00 | 0.00 | 82 | 1009.1 |
| 20260508072324 | 46 | 191 | 0.0 | 0.0 | 0.00 | 0.00 | 0.00 | 82 | 1009.1 |
| 20260508071846 | 46 | 191 | 0.0 | 0.0 | 0.00 | 0.00 | 0.00 | 82 | 1009.2 |
| 20260508071337 | 46 | 191 | 0.0 | 0.0 | 0.00 | 0.00 | 0.00 | 82 | 1009.2 |
| 20260508070831 | 46 | 191 | 0.0 | 0.0 | 0.00 | 0.00 | 0.00 | 82 | 1009.2 |
| 20260508070322 | 46 | 191 | 0.0 | 0.0 | 0.00 | 0.00 | 0.00 | 81 | 1009.2 |
| 20260508065842 | 47 | 191 | 0.0 | 0.0 | 0.00 | 0.00 | 0.00 | 81 | 1009.2 |
| 20260508065335 | 47 | 191 | 0.0 | 0.0 | 0.00 | 0.00 | 0.00 | 81 | 1009.2 |
| 20260508064827 | 47 | 192 | 0.0 | 0.0 | 0.00 | 0.00 | 0.00 | 81 | 1009.3 |
| 20260508064339 | 47 | 192 | 0.0 | 0.0 | 0.00 | 0.00 | 0.00 | 81 | 1009.3 |
| 20260508063827 | 47 | 192 | 0.0 | 0.0 | 0.00 | 0.00 | 0.00 | 80 | 1009.3 |
| 20260508063314 | 47 | 192 | 0.0 | 1.7 | 0.00 | 0.00 | 0.00 | 80 | 1009.5 |
| 20260508062828 | 47 | 192 | 0.0 | 4.3 | 0.00 | 0.00 | 0.00 | 80 | 1009.5 |
| 20260508062325 | 47 | 192 | 0.9 | 5.2 | 0.00 | 0.00 | 0.00 | 80 | 1009.5 |
| 20260508061828 | 47 | 192 | 0.0 | 4.3 | 0.00 | 0.00 | 0.00 | 80 | 1009.6 |
| 20260508061322 | 47 | 192 | 0.9 | 5.2 | 0.00 | 0.00 | 0.00 | 79 | 1009.6 |
| 20260508060858 | 47 | 192 | 1.7 | 6.1 | 0.00 | 0.00 | 0.00 | 79 | 1009.6 |
| 20260508060333 | 47 | 190 | 2.6 | 6.1 | 0.00 | 0.00 | 0.00 | 79 | 1009.7 |
| 20260508055840 | 47 | 190 | 2.6 | 8.7 | 0.00 | 0.00 | 0.00 | 79 | 1009.7 |
| 20260508055332 | 48 | 190 | 1.7 | 8.7 | 0.00 | 0.00 | 0.00 | 78 | 1009.7 |
| 20260508054827 | 48 | 197 | 2.6 | 7.0 | 0.00 | 0.00 | 0.00 | 78 | 1009.8 |
| 20260508054338 | 48 | 201 | 2.6 | 7.0 | 0.00 | 0.00 | 0.00 | 78 | 1009.8 |
| 20260508053849 | 48 | 200 | 0.9 | 8.7 | 0.00 | 0.00 | 0.00 | 77 | 1009.8 |
| 20260508053319 | 48 | 200 | 3.5 | 9.6 | 0.00 | 0.00 | 0.00 | 77 | 1009.8 |
| 20260508052830 | 48 | 215 | 4.3 | 9.6 | 0.00 | 0.00 | 0.00 | 76 | 1009.8 |
| 20260508052320 | 49 | 203 | 3.5 | 11.3 | 0.00 | 0.00 | 0.00 | 76 | 1009.8 |
| 20260508051842 | 49 | 201 | 4.3 | 12.2 | 0.00 | 0.00 | 0.00 | 75 | 1009.7 |
| 20260508051331 | 49 | 219 | 5.2 | 12.2 | 0.00 | 0.00 | 0.00 | 75 | 1009.7 |
| 20260508050824 | 49 | 194 | 2.6 | 7.0 | 0.00 | 0.00 | 0.00 | 74 | 1009.7 |
| 20260508050327 | 49 | 232 | 4.3 | 10.4 | 0.00 | 0.00 | 0.00 | 73 | 1009.8 |
| 20260508045840 | 49 | 241 | 6.1 | 10.4 | 0.00 | 0.00 | 0.00 | 73 | 1009.8 |
| 20260508045332 | 49 | 200 | 4.3 | 11.3 | 0.00 | 0.00 | 0.00 | 73 | 1009.8 |
| 20260508044817 | 49 | 236 | 3.5 | 10.4 | 0.00 | 0.00 | 0.00 | 72 | 1009.5 |
| 20260508044334 | 49 | 199 | 4.3 | 7.8 | 0.00 | 0.00 | 0.00 | 72 | 1009.5 |
| 20260508043822 | 50 | 219 | 2.6 | 7.8 | 0.00 | 0.00 | 0.00 | 72 | 1009.5 |
| 20260508043331 | 50 | 195 | 3.5 | 8.7 | 0.00 | 0.00 | 0.00 | 72 | 1009.4 |
| 20260508042825 | 50 | 202 | 3.5 | 15.6 | 0.00 | 0.00 | 0.00 | 71 | 1009.4 |
| 20260508042331 | 49 | 197 | 4.3 | 7.8 | 0.00 | 0.00 | 0.00 | 71 | 1009.4 |
| 20260508041817 | 49 | 171 | 3.5 | 6.1 | 0.00 | 0.00 | 0.00 | 72 | 1009.5 |
| 20260508041354 | 49 | 163 | 3.5 | 6.1 | 0.00 | 0.00 | 0.00 | 72 | 1009.5 |
| 20260508040820 | 49 | 172 | 2.6 | 6.1 | 0.00 | 0.00 | 0.00 | 72 | 1009.5 |
| 20260508040349 | 49 | 180 | 1.7 | 5.2 | 0.00 | 0.00 | 0.00 | 72 | 1009.7 |
| 20260508035825 | 49 | 180 | 1.7 | 5.2 | 0.00 | 0.00 | 0.00 | 72 | 1009.7 |
| 20260508035314 | 49 | 184 | 0.9 | 5.2 | 0.00 | 0.00 | 0.00 | 72 | 1009.7 |
| 20260508034818 | 49 | 184 | 0.9 | 4.3 | 0.00 | 0.00 | 0.00 | 72 | 1009.8 |
| 20260508034323 | 49 | 184 | 0.0 | 3.5 | 0.00 | 0.00 | 0.00 | 72 | 1009.8 |
| 20260508033813 | 49 | 184 | 0.0 | 3.5 | 0.00 | 0.00 | 0.00 | 71 | 1009.8 |
| 20260508033338 | 49 | 184 | 1.7 | 4.3 | 0.00 | 0.00 | 0.00 | 71 | 1009.9 |
| 20260508032829 | 49 | 184 | 1.7 | 4.3 | 0.00 | 0.00 | 0.00 | 71 | 1009.9 |
| 20260508032322 | 50 | 185 | 0.0 | 3.5 | 0.00 | 0.00 | 0.00 | 71 | 1009.9 |
| 20260508031814 | 50 | 185 | 0.0 | 3.5 | 0.00 | 0.00 | 0.00 | 71 | 1010.1 |
| 20260508031323 | 50 | 185 | 0.9 | 5.2 | 0.00 | 0.00 | 0.00 | 70 | 1010.1 |
| 20260508030840 | 50 | 185 | 0.9 | 5.2 | 0.00 | 0.00 | 0.00 | 70 | 1010.1 |
| 20260508030332 | 50 | 185 | 1.7 | 4.3 | 0.00 | 0.00 | 0.00 | 70 | 1010.2 |
| 20260508025823 | 50 | 185 | 0.9 | 4.3 | 0.00 | 0.00 | 0.00 | 69 | 1010.2 |
| 20260508025335 | 50 | 185 | 1.7 | 4.3 | 0.00 | 0.00 | 0.00 | 69 | 1010.2 |
| 20260508024813 | 50 | 185 | 0.9 | 5.2 | 0.00 | 0.00 | 0.00 | 69 | 1010.1 |
| 20260508024330 | 50 | 185 | 2.6 | 5.2 | 0.00 | 0.00 | 0.00 | 68 | 1010.1 |
| 20260508023826 | 50 | 185 | 0.9 | 4.3 | 0.00 | 0.00 | 0.00 | 68 | 1010.1 |
| 20260508023311 | 50 | 185 | 1.7 | 3.5 | 0.00 | 0.00 | 0.00 | 67 | 1010.2 |
| 20260508022824 | 50 | 200 | 0.0 | 4.3 | 0.00 | 0.00 | 0.00 | 67 | 1010.2 |
| 20260508022317 | 51 | 200 | 0.9 | 6.1 | 0.00 | 0.00 | 0.00 | 66 | 1010.2 |
| 20260508021827 | 51 | 200 | 1.7 | 6.1 | 0.00 | 0.00 | 0.00 | 66 | 1010.2 |
| 20260508021332 | 51 | 192 | 0.0 | 7.8 | 0.00 | 0.00 | 0.00 | 66 | 1010.2 |
| 20260508020820 | 51 | 192 | 0.9 | 7.8 | 0.00 | 0.00 | 0.00 | 66 | 1010.2 |
| 20260508020346 | 51 | 196 | 1.7 | 7.8 | 0.00 | 0.00 | 0.00 | 66 | 1010.0 |
| 20260508015834 | 51 | 196 | 1.7 | 7.8 | 0.00 | 0.00 | 0.00 | 66 | 1010.0 |
| 20260508015322 | 51 | 215 | 1.7 | 5.2 | 0.00 | 0.00 | 0.00 | 65 | 1010.0 |
| 20260508014815 | 51 | 215 | 0.9 | 8.7 | 0.00 | 0.00 | 0.00 | 65 | 1010.0 |
| 20260508014321 | 51 | 216 | 4.3 | 9.6 | 0.00 | 0.00 | 0.00 | 64 | 1010.0 |
| 20260508013818 | 51 | 213 | 5.2 | 10.4 | 0.00 | 0.00 | 0.00 | 64 | 1010.0 |
| 20260508013339 | 51 | 221 | 6.1 | 10.4 | 0.00 | 0.00 | 0.00 | 64 | 1009.8 |
| 20260508012825 | 51 | 228 | 3.5 | 9.6 | 0.00 | 0.00 | 0.00 | 63 | 1009.8 |
| 20260508012337 | 51 | 205 | 5.2 | 9.6 | 0.00 | 0.00 | 0.00 | 63 | 1009.8 |
| 20260508011820 | 51 | 191 | 4.3 | 9.6 | 0.00 | 0.00 | 0.00 | 62 | 1009.8 |
| 20260508011327 | 52 | 219 | 1.7 | 12.2 | 0.00 | 0.00 | 0.00 | 61 | 1009.8 |
| 20260508010830 | 52 | 198 | 5.2 | 12.2 | 0.00 | 0.00 | 0.00 | 60 | 1009.8 |
| 20260508010336 | 52 | 221 | 7.8 | 13.9 | 0.00 | 0.00 | 0.00 | 59 | 1009.8 |
| 20260508005836 | 52 | 219 | 7.0 | 15.6 | 0.00 | 0.00 | 0.00 | 59 | 1009.8 |
| 20260508005339 | 52 | 213 | 8.7 | 15.6 | 0.00 | 0.00 | 0.00 | 58 | 1009.8 |
| 20260508004825 | 53 | 215 | 7.8 | 13.9 | 0.00 | 0.00 | 0.00 | 57 | 1009.7 |
| 20260508004354 | 53 | 214 | 5.2 | 18.2 | 0.00 | 0.00 | 0.00 | 55 | 1009.7 |
| 20260508003819 | 53 | 200 | 8.7 | 18.2 | 0.00 | 0.00 | 0.00 | 54 | 1009.7 |
| 20260508003328 | 54 | 216 | 6.1 | 18.2 | 0.00 | 0.00 | 0.00 | 53 | 1009.4 |
| 20260508002818 | 54 | 229 | 10.4 | 20.0 | 0.00 | 0.00 | 0.00 | 51 | 1009.4 |
| 20260508002336 | 55 | 211 | 11.3 | 20.0 | 0.00 | 0.00 | 0.00 | 49 | 1009.4 |
| 20260508001829 | 55 | 204 | 7.0 | 17.4 | 0.00 | 0.00 | 0.00 | 48 | 1009.2 |
| 20260508001321 | 56 | 207 | 8.7 | 17.4 | 0.00 | 0.00 | 0.00 | 46 | 1009.2 |
| 20260508000850 | 56 | 235 | 7.0 | 13.9 | 0.00 | 0.00 | 0.00 | 45 | 1009.2 |
| 20260508000314 | 56 | 225 | 6.1 | 13.9 | 0.00 | 0.00 | 0.00 | 44 | 1009.2 |
| 20260507235826 | 56 | 236 | 7.8 | 13.0 | 0.00 | 0.00 | 0.00 | 43 | 1009.2 |
| 20260507235320 | 56 | 238 | 7.8 | 13.0 | 0.00 | 0.00 | 0.00 | 42 | 1009.2 |
| 20260507234904 | 56 | 227 | 3.5 | 11.3 | 0.00 | 0.00 | 0.00 | 43 | 1009.2 |
| 20260507234334 | 56 | 244 | 7.8 | 13.0 | 0.00 | 0.00 | 0.00 | 42 | 1009.2 |
| 20260507233822 | 56 | 219 | 8.7 | 13.0 | 0.00 | 0.00 | 0.00 | 41 | 1009.2 |
| 20260507233332 | 56 | 255 | 8.7 | 13.9 | 0.00 | 0.00 | 0.00 | 41 | 1009.2 |
| 20260507232820 | 57 | 274 | 7.8 | 13.9 | 0.00 | 0.00 | 0.00 | 41 | 1009.2 |
| 20260507232333 | 57 | 246 | 8.7 | 13.0 | 0.00 | 0.00 | 0.00 | 40 | 1009.2 |
| 20260507231844 | 57 | 244 | 6.1 | 13.0 | 0.00 | 0.00 | 0.00 | 40 | 1009.2 |
| 20260507231314 | 57 | 215 | 7.8 | 13.0 | 0.00 | 0.00 | 0.00 | 40 | 1009.2 |
| 20260507230823 | 58 | 241 | 8.7 | 17.4 | 0.00 | 0.00 | 0.00 | 39 | 1009.2 |
| 20260507230331 | 58 | 255 | 4.3 | 13.0 | 0.00 | 0.00 | 0.00 | 39 | 1009.1 |
| 20260507225817 | 58 | 246 | 8.7 | 13.0 | 0.00 | 0.00 | 0.00 | 39 | 1009.1 |
| 20260507225339 | 58 | 260 | 7.0 | 13.0 | 0.00 | 0.00 | 0.00 | 39 | 1009.1 |
| 20260507224823 | 57 | 246 | 8.7 | 13.0 | 0.00 | 0.00 | 0.00 | 39 | 1009.2 |
| 20260507224344 | 57 | 268 | 3.5 | 13.0 | 0.00 | 0.00 | 0.00 | 40 | 1009.2 |
| 20260507223839 | 57 | 251 | 7.8 | 13.0 | 0.00 | 0.00 | 0.00 | 38 | 1009.2 |
| 20260507223319 | 57 | 258 | 7.0 | 12.2 | 0.00 | 0.00 | 0.00 | 39 | 1009.3 |
| 20260507222828 | 57 | 227 | 6.1 | 12.2 | 0.00 | 0.00 | 0.00 | 38 | 1009.3 |
| 20260507222313 | 58 | 254 | 7.8 | 12.2 | 0.00 | 0.00 | 0.00 | 38 | 1009.3 |
| 20260507221838 | 58 | 281 | 6.1 | 10.4 | 0.00 | 0.00 | 0.00 | 39 | 1009.2 |
| 20260507221326 | 59 | 263 | 5.2 | 11.3 | 0.00 | 0.00 | 0.00 | 37 | 1009.2 |
| 20260507220837 | 59 | 288 | 4.3 | 11.3 | 0.00 | 0.00 | 0.00 | 38 | 1009.2 |
| 20260507220323 | 60 | 257 | 0.9 | 8.7 | 0.00 | 0.00 | 0.00 | 38 | 1009.2 |
| 20260507215903 | 60 | 263 | 4.3 | 13.9 | 0.00 | 0.00 | 0.00 | 38 | 1009.2 |
| 20260507215347 | 60 | 286 | 6.1 | 13.9 | 0.00 | 0.00 | 0.00 | 38 | 1009.2 |
| 20260507214813 | 59 | 263 | 5.2 | 13.9 | 0.00 | 0.00 | 0.00 | 38 | 1009.2 |
| 20260507214345 | 59 | 251 | 8.7 | 17.4 | 0.00 | 0.00 | 0.00 | 37 | 1009.2 |
| 20260507213814 | 59 | 264 | 9.6 | 17.4 | 0.00 | 0.00 | 0.00 | 36 | 1009.2 |
| 20260507213337 | 59 | 254 | 1.7 | 12.2 | 0.00 | 0.00 | 0.00 | 40 | 1009.1 |
| 20260507212841 | 59 | 259 | 7.8 | 13.9 | 0.00 | 0.00 | 0.00 | 37 | 1009.1 |
| 20260507212332 | 60 | 298 | 7.0 | 15.6 | 0.00 | 0.00 | 0.00 | 37 | 1009.1 |
| 20260507211821 | 60 | 279 | 6.1 | 15.6 | 0.00 | 0.00 | 0.00 | 39 | 1009.2 |
| 20260507211324 | 59 | 264 | 2.6 | 15.6 | 0.00 | 0.00 | 0.00 | 39 | 1009.2 |
| 20260507210901 | 59 | 262 | 2.6 | 11.3 | 0.00 | 0.00 | 0.00 | 41 | 1009.2 |
| 20260507210329 | 59 | 301 | 4.3 | 12.2 | 0.00 | 0.00 | 0.00 | 39 | 1009.4 |
| 20260507205841 | 59 | 249 | 3.5 | 12.2 | 0.00 | 0.00 | 0.00 | 41 | 1009.4 |
| 20260507205322 | 58 | 281 | 5.2 | 9.6 | 0.00 | 0.00 | 0.00 | 41 | 1009.4 |
| 20260507204831 | 58 | 251 | 4.3 | 12.2 | 0.00 | 0.00 | 0.00 | 42 | 1009.4 |
| 20260507204317 | 57 | 258 | 7.0 | 17.4 | 0.00 | 0.00 | 0.00 | 40 | 1009.4 |
| 20260507203828 | 57 | 262 | 8.7 | 17.4 | 0.00 | 0.00 | 0.00 | 42 | 1009.4 |
| 20260507203339 | 57 | 250 | 4.3 | 17.4 | 0.00 | 0.00 | 0.00 | 40 | 1009.6 |
| 20260507202830 | 57 | 257 | 7.0 | 17.4 | 0.00 | 0.00 | 0.00 | 41 | 1009.6 |
| 20260507202355 | 57 | 290 | 6.1 | 13.9 | 0.00 | 0.00 | 0.00 | 42 | 1009.6 |
| 20260507201841 | 57 | 256 | 4.3 | 10.4 | 0.00 | 0.00 | 0.00 | 43 | 1009.8 |
| 20260507201334 | 56 | 255 | 7.0 | 13.9 | 0.00 | 0.00 | 0.00 | 43 | 1009.8 |
| 20260507200830 | 56 | 263 | 6.1 | 13.9 | 0.00 | 0.00 | 0.00 | 44 | 1009.8 |
| 20260507200323 | 56 | 265 | 6.1 | 15.6 | 0.00 | 0.00 | 0.00 | 43 | 1009.8 |
| 20260507195850 | 56 | 262 | 6.1 | 15.6 | 0.00 | 0.00 | 0.00 | 43 | 1009.8 |
| 20260507195318 | 57 | 267 | 7.8 | 16.5 | 0.00 | 0.00 | 0.00 | 43 | 1009.8 |